[Date Prev][Date Next][Thread Prev][Thread Next] - [Date Index][Thread Index][Author Index]

2 LIne ISS Keps 2-21



ISS
1 25544U 98067A   04052.13157407  .00015039  00000-0  14161-3 0  2378
2 25544  51.6268 201.7352 0006481 189.6572 158.9200 15.67313489299942

----
Via the sarex mailing list at AMSAT.ORG courtesy of AMSAT-NA.
To unsubscribe, send "unsubscribe sarex" to Majordomo@amsat.org



AMSAT Top AMSAT Home